カタログに戻る

FLOCK 4G 36

運用中科学SSO
NORAD 62675·PAYLOAD·🇺🇸 United States

打ち上げ Jan 14, 2025 から Vandenberg Space Force Base

Loading…

次のパス (今後24時間)

TLE

最新Source: CelesTrak SupGP

元期: Sep 14, 2026, 18:45 UTC

1 62675C 25009BU  26257.78146991  .00004816  00000+0  16147-3 0  2576
2 62675  97.3962 339.1694 0004480  23.1657 131.5011 15.30955540    19

AllMySatでFLOCK 4G 36をリアルタイム追跡

Download on the App Store